Volver al catálogo

THOR ABLESTAR DEB

ActivoLEO
NORAD 21986·DEBRIS·🇺🇸 United States

Lanzado Jun 29, 1961 desde Cape Canaveral Space Force Station

Loading…

Próximos Pases (próximas 24 horas)

TLE

ActualizadoSource: Space-Track

Época: Sep 14, 2026, 13:27 UTC

1 21986U 61015MM  26257.56054561  .00000200  00000-0  16145-3 0  9995
2 21986  66.8764 302.7883 0098943 323.5816 186.0935 14.06416101765461

Sigue THOR ABLESTAR DEB en tiempo real con AllMySat

Download on the App Store